| time (UTC) | temp C | wind direction | speed KPH | gust KPH | rain 1hr cm | rain 24hr cm | rain mn cm | humidity % | barometer mb |
| 20260507115502 | 11 | 317 | 0.0 | 3.2 | 0.00 | 0.00 | 0.00 | 78 | 1018.7 |
| 20260507114502 | 11 | 333 | 0.0 | 4.8 | 0.00 | 0.00 | 0.00 | 78 | 1018.8 |
| 20260507114002 | 11 | 347 | 0.0 | 3.2 | 0.00 | 0.00 | 0.00 | 78 | 1018.8 |
| 20260507113502 | 11 | 346 | 0.0 | 3.2 | 0.00 | 0.00 | 0.00 | 78 | 1018.8 |
| 20260507113002 | 11 | 339 | 0.0 | 3.2 | 0.00 | 0.00 | 0.00 | 77 | 1018.8 |
| 20260507112502 | 11 | 341 | 0.0 | 1.6 | 0.00 | 0.00 | 0.00 | 77 | 1018.9 |
| 20260507112023 | 11 | 0 | 0.0 | 0.0 | 0.00 | 0.00 | 0.00 | 77 | 1018.9 |
| 20260507111503 | 11 | 0 | 0.0 | 0.0 | 0.00 | 0.00 | 0.00 | 77 | 1018.9 |
| 20260507111023 | 11 | 0 | 0.0 | 0.0 | 0.00 | 0.00 | 0.00 | 77 | 1018.9 |
| 20260507110502 | 11 | 0 | 0.0 | 0.0 | 0.00 | 0.00 | 0.00 | 77 | 1018.9 |
| 20260507110002 | 11 | 0 | 0.0 | 0.0 | 0.00 | 0.00 | 0.00 | 77 | 1018.9 |
| 20260507105502 | 11 | 0 | 0.0 | 0.0 | 0.00 | 0.00 | 0.00 | 77 | 1019.0 |
| 20260507105002 | 11 | 0 | 0.0 | 0.0 | 0.00 | 0.00 | 0.00 | 77 | 1019.0 |
| 20260507104502 | 11 | 352 | 0.0 | 4.8 | 0.00 | 0.00 | 0.00 | 76 | 1019.0 |
| 20260507104002 | 11 | 350 | 0.0 | 4.8 | 0.00 | 0.00 | 0.00 | 76 | 1019.0 |
| 20260507103502 | 11 | 334 | 1.6 | 4.8 | 0.00 | 0.00 | 0.00 | 76 | 1019.0 |
| 20260507103002 | 11 | 329 | 1.6 | 4.8 | 0.00 | 0.00 | 0.00 | 76 | 1019.1 |
| 20260507102523 | 11 | 332 | 1.6 | 9.7 | 0.00 | 0.00 | 0.00 | 76 | 1019.1 |
| 20260507102002 | 11 | 335 | 1.6 | 9.7 | 0.00 | 0.00 | 0.00 | 76 | 1019.1 |
| 20260507101523 | 11 | 0 | 0.0 | 0.0 | 0.00 | 0.00 | 0.00 | 76 | 1019.1 |
| 20260507101023 | 12 | 338 | 0.0 | 1.6 | 0.00 | 0.00 | 0.00 | 76 | 1019.1 |
| 20260507100502 | 12 | 323 | 1.6 | 6.4 | 0.00 | 0.00 | 0.00 | 75 | 1019.2 |
| 20260507100002 | 12 | 325 | 1.6 | 6.4 | 0.00 | 0.00 | 0.00 | 75 | 1019.2 |
| 20260507095502 | 12 | 336 | 1.6 | 4.8 | 0.00 | 0.00 | 0.00 | 75 | 1019.2 |
| 20260507095002 | 12 | 338 | 0.0 | 3.2 | 0.00 | 0.00 | 0.00 | 76 | 1019.2 |
| 20260507094502 | 12 | 0 | 0.0 | 0.0 | 0.00 | 0.00 | 0.00 | 76 | 1019.2 |
| 20260507094002 | 12 | 0 | 0.0 | 0.0 | 0.00 | 0.00 | 0.00 | 76 | 1019.3 |
| 20260507093502 | 12 | 0 | 0.0 | 0.0 | 0.00 | 0.00 | 0.00 | 76 | 1019.4 |
| 20260507093002 | 12 | 0 | 0.0 | 0.0 | 0.00 | 0.00 | 0.00 | 76 | 1019.4 |
| 20260507092502 | 12 | 0 | 0.0 | 0.0 | 0.00 | 0.00 | 0.00 | 77 | 1019.5 |
| 20260507092002 | 12 | 0 | 0.0 | 0.0 | 0.00 | 0.00 | 0.00 | 76 | 1019.5 |
| 20260507091502 | 12 | 0 | 0.0 | 0.0 | 0.00 | 0.00 | 0.00 | 77 | 1019.5 |
| 20260507091002 | 12 | 333 | 0.0 | 3.2 | 0.00 | 0.00 | 0.00 | 77 | 1019.6 |
| 20260507090502 | 12 | 329 | 0.0 | 3.2 | 0.00 | 0.00 | 0.00 | 77 | 1019.6 |
| 20260507090002 | 12 | 322 | 0.0 | 3.2 | 0.00 | 0.00 | 0.00 | 77 | 1019.6 |
| 20260507085502 | 12 | 319 | 0.0 | 4.8 | 0.00 | 0.00 | 0.00 | 77 | 1019.6 |
| 20260507085002 | 12 | 322 | 0.0 | 4.8 | 0.00 | 0.00 | 0.00 | 77 | 1019.5 |
| 20260507084502 | 12 | 0 | 0.0 | 0.0 | 0.00 | 0.00 | 0.00 | 77 | 1019.6 |
| 20260507084023 | 12 | 0 | 0.0 | 0.0 | 0.00 | 0.00 | 0.00 | 77 | 1019.5 |
| 20260507083523 | 12 | 0 | 0.0 | 0.0 | 0.00 | 0.00 | 0.00 | 78 | 1019.5 |
| 20260507083002 | 12 | 333 | 1.6 | 4.8 | 0.00 | 0.00 | 0.00 | 78 | 1019.5 |
| 20260507082502 | 12 | 333 | 1.6 | 8.0 | 0.00 | 0.00 | 0.00 | 78 | 1019.5 |
| 20260507082023 | 12 | 333 | 1.6 | 8.0 | 0.00 | 0.00 | 0.00 | 78 | 1019.5 |
| 20260507081523 | 12 | 33 | 0.0 | 3.2 | 0.00 | 0.00 | 0.00 | 78 | 1019.5 |
| 20260507081002 | 12 | 333 | 1.6 | 6.4 | 0.00 | 0.00 | 0.00 | 78 | 1019.4 |
| 20260507080523 | 12 | 331 | 1.6 | 6.4 | 0.00 | 0.00 | 0.00 | 78 | 1019.5 |
| 20260507080002 | 12 | 330 | 1.6 | 6.4 | 0.00 | 0.00 | 0.00 | 78 | 1019.5 |
| 20260507075502 | 12 | 331 | 1.6 | 8.0 | 0.00 | 0.00 | 0.00 | 78 | 1019.5 |
| 20260507075002 | 12 | 337 | 1.6 | 8.0 | 0.00 | 0.00 | 0.00 | 78 | 1019.5 |
| 20260507074502 | 12 | 335 | 1.6 | 4.8 | 0.00 | 0.00 | 0.00 | 79 | 1019.5 |
| 20260507074002 | 12 | 320 | 0.0 | 3.2 | 0.00 | 0.00 | 0.00 | 79 | 1019.5 |
| 20260507073523 | 12 | 331 | 0.0 | 3.2 | 0.00 | 0.00 | 0.00 | 79 | 1019.5 |
| 20260507073002 | 12 | 343 | 0.0 | 4.8 | 0.00 | 0.00 | 0.00 | 79 | 1019.4 |
| 20260507072502 | 12 | 340 | 1.6 | 4.8 | 0.00 | 0.00 | 0.00 | 79 | 1019.4 |
| 20260507072002 | 12 | 332 | 0.0 | 4.8 | 0.00 | 0.00 | 0.00 | 79 | 1019.4 |
| 20260507071502 | 12 | 0 | 0.0 | 0.0 | 0.00 | 0.00 | 0.00 | 79 | 1019.4 |
| 20260507071002 | 12 | 0 | 0.0 | 0.0 | 0.00 | 0.00 | 0.00 | 79 | 1019.4 |
| 20260507070502 | 12 | 323 | 0.0 | 3.2 | 0.00 | 0.00 | 0.00 | 79 | 1019.4 |
| 20260507070004 | 12 | 337 | 0.0 | 4.8 | 0.00 | 0.00 | 0.00 | 79 | 1019.4 |
| 20260507065502 | 12 | 338 | 1.6 | 4.8 | 0.00 | 0.00 | 0.00 | 79 | 1019.4 |
| 20260507065023 | 12 | 342 | 1.6 | 6.4 | 0.00 | 0.00 | 0.00 | 80 | 1019.5 |
| 20260507064502 | 12 | 341 | 1.6 | 6.4 | 0.00 | 0.00 | 0.00 | 80 | 1019.4 |
| 20260507064023 | 12 | 336 | 1.6 | 6.4 | 0.00 | 0.00 | 0.00 | 80 | 1019.4 |
| 20260507063502 | 12 | 336 | 1.6 | 9.7 | 0.00 | 0.00 | 0.00 | 80 | 1019.4 |
| 20260507063002 | 12 | 337 | 1.6 | 9.7 | 0.00 | 0.00 | 0.00 | 80 | 1019.4 |
| 20260507062502 | 12 | 336 | 1.6 | 8.0 | 0.00 | 0.00 | 0.00 | 80 | 1019.5 |
| 20260507062002 | 12 | 335 | 1.6 | 8.0 | 0.00 | 0.00 | 0.00 | 79 | 1019.5 |
| 20260507061502 | 12 | 336 | 1.6 | 8.0 | 0.00 | 0.00 | 0.00 | 79 | 1019.5 |
| 20260507061023 | 12 | 338 | 1.6 | 9.7 | 0.00 | 0.00 | 0.00 | 79 | 1019.5 |
| 20260507060502 | 12 | 338 | 1.6 | 9.7 | 0.00 | 0.00 | 0.00 | 79 | 1019.5 |
| 20260507060002 | 13 | 329 | 1.6 | 9.7 | 0.00 | 0.00 | 0.00 | 79 | 1019.4 |
| 20260507055523 | 13 | 333 | 1.6 | 6.4 | 0.00 | 0.00 | 0.00 | 79 | 1019.4 |
| 20260507055002 | 13 | 337 | 1.6 | 6.4 | 0.00 | 0.00 | 0.00 | 78 | 1019.4 |
| 20260507054502 | 13 | 336 | 1.6 | 6.4 | 0.00 | 0.00 | 0.00 | 78 | 1019.4 |
| 20260507054002 | 13 | 339 | 1.6 | 6.4 | 0.00 | 0.00 | 0.00 | 78 | 1019.4 |
| 20260507053502 | 13 | 341 | 1.6 | 6.4 | 0.00 | 0.00 | 0.00 | 78 | 1019.4 |
| 20260507053003 | 13 | 341 | 1.6 | 6.4 | 0.00 | 0.00 | 0.00 | 78 | 1019.4 |
| 20260507052502 | 13 | 339 | 1.6 | 6.4 | 0.00 | 0.00 | 0.00 | 78 | 1019.4 |
| 20260507052003 | 13 | 335 | 3.2 | 9.7 | 0.00 | 0.00 | 0.00 | 77 | 1019.4 |
| 20260507051523 | 13 | 331 | 3.2 | 9.7 | 0.00 | 0.00 | 0.00 | 77 | 1019.3 |
| 20260507051002 | 13 | 332 | 3.2 | 8.0 | 0.00 | 0.00 | 0.00 | 77 | 1019.3 |
| 20260507050502 | 13 | 342 | 1.6 | 8.0 | 0.00 | 0.00 | 0.00 | 77 | 1019.4 |
| 20260507050002 | 13 | 343 | 1.6 | 8.0 | 0.00 | 0.00 | 0.00 | 77 | 1019.3 |
| 20260507045502 | 13 | 335 | 1.6 | 8.0 | 0.00 | 0.00 | 0.00 | 76 | 1019.4 |
| 20260507045023 | 13 | 328 | 1.6 | 6.4 | 0.00 | 0.00 | 0.00 | 76 | 1019.3 |
| 20260507044502 | 13 | 335 | 1.6 | 8.0 | 0.00 | 0.00 | 0.00 | 76 | 1019.4 |
| 20260507044024 | 14 | 337 | 1.6 | 8.0 | 0.00 | 0.00 | 0.00 | 76 | 1019.3 |
| 20260507043523 | 14 | 340 | 1.6 | 9.7 | 0.00 | 0.00 | 0.00 | 76 | 1019.3 |
| 20260507043002 | 14 | 338 | 1.6 | 9.7 | 0.00 | 0.00 | 0.00 | 76 | 1019.2 |
| 20260507042502 | 14 | 332 | 1.6 | 6.4 | 0.00 | 0.00 | 0.00 | 76 | 1019.2 |
| 20260507042002 | 14 | 333 | 1.6 | 6.4 | 0.00 | 0.00 | 0.00 | 76 | 1019.1 |
| 20260507041502 | 14 | 338 | 1.6 | 6.4 | 0.00 | 0.00 | 0.00 | 76 | 1019.1 |
| 20260507041002 | 15 | 334 | 1.6 | 6.4 | 0.00 | 0.00 | 0.00 | 76 | 1019.0 |
| 20260507040502 | 15 | 327 | 3.2 | 8.0 | 0.00 | 0.00 | 0.00 | 76 | 1018.9 |
| 20260507040002 | 15 | 325 | 1.6 | 8.0 | 0.00 | 0.00 | 0.00 | 76 | 1018.9 |
| 20260507035523 | 15 | 308 | 1.6 | 4.8 | 0.00 | 0.00 | 0.00 | 76 | 1018.8 |
| 20260507035002 | 15 | 326 | 1.6 | 12.9 | 0.00 | 0.00 | 0.00 | 77 | 1018.7 |
| 20260507034502 | 15 | 336 | 1.6 | 12.9 | 0.00 | 0.00 | 0.00 | 76 | 1018.6 |
| 20260507034003 | 15 | 333 | 1.6 | 8.0 | 0.00 | 0.00 | 0.00 | 76 | 1018.6 |
| 20260507033502 | 15 | 326 | 1.6 | 6.4 | 0.00 | 0.00 | 0.00 | 76 | 1018.5 |
| 20260507033002 | 15 | 323 | 1.6 | 6.4 | 0.00 | 0.00 | 0.00 | 76 | 1018.5 |
| 20260507032502 | 15 | 323 | 1.6 | 6.4 | 0.00 | 0.00 | 0.00 | 76 | 1018.4 |
| 20260507032002 | 15 | 322 | 1.6 | 6.4 | 0.00 | 0.00 | 0.00 | 75 | 1018.4 |
| 20260507031502 | 15 | 312 | 1.6 | 6.4 | 0.00 | 0.00 | 0.00 | 75 | 1018.3 |
| 20260507031002 | 15 | 317 | 1.6 | 8.0 | 0.00 | 0.00 | 0.00 | 74 | 1018.2 |
| 20260507030503 | 15 | 321 | 1.6 | 9.7 | 0.00 | 0.00 | 0.00 | 74 | 1018.2 |
| 20260507030002 | 16 | 310 | 1.6 | 9.7 | 0.00 | 0.00 | 0.00 | 73 | 1018.2 |
| 20260507025502 | 16 | 308 | 1.6 | 4.8 | 0.00 | 0.00 | 0.00 | 73 | 1018.1 |
| 20260507025002 | 16 | 320 | 1.6 | 8.0 | 0.00 | 0.00 | 0.00 | 72 | 1018.1 |
| 20260507024504 | 16 | 334 | 1.6 | 8.0 | 0.00 | 0.00 | 0.00 | 72 | 1018.0 |
| 20260507024002 | 16 | 337 | 1.6 | 6.4 | 0.00 | 0.00 | 0.00 | 71 | 1018.0 |
| 20260507023502 | 16 | 339 | 1.6 | 6.4 | 0.00 | 0.00 | 0.00 | 71 | 1017.8 |
| 20260507023002 | 17 | 342 | 1.6 | 6.4 | 0.00 | 0.00 | 0.00 | 71 | 1017.9 |
| 20260507022502 | 17 | 338 | 1.6 | 8.0 | 0.00 | 0.00 | 0.00 | 71 | 1017.9 |
| 20260507022023 | 17 | 336 | 1.6 | 8.0 | 0.00 | 0.00 | 0.00 | 70 | 1017.8 |
| 20260507021502 | 17 | 325 | 1.6 | 4.8 | 0.00 | 0.00 | 0.00 | 70 | 1018.0 |
| 20260507021023 | 17 | 315 | 1.6 | 8.0 | 0.00 | 0.00 | 0.00 | 70 | 1018.0 |
| 20260507020523 | 17 | 314 | 1.6 | 8.0 | 0.00 | 0.00 | 0.00 | 70 | 1018.0 |
| 20260507020002 | 17 | 334 | 1.6 | 4.8 | 0.00 | 0.00 | 0.00 | 69 | 1018.0 |
| 20260507015502 | 17 | 340 | 1.6 | 12.9 | 0.00 | 0.00 | 0.00 | 69 | 1017.9 |
| 20260507015003 | 17 | 340 | 1.6 | 12.9 | 0.00 | 0.00 | 0.00 | 69 | 1018.0 |
| 20260507014502 | 17 | 336 | 1.6 | 8.0 | 0.00 | 0.00 | 0.00 | 68 | 1018.0 |
| 20260507014023 | 18 | 332 | 1.6 | 8.0 | 0.00 | 0.00 | 0.00 | 67 | 1018.0 |
| 20260507013523 | 18 | 333 | 1.6 | 6.4 | 0.00 | 0.00 | 0.00 | 67 | 1018.0 |
| 20260507013002 | 18 | 329 | 1.6 | 12.9 | 0.00 | 0.00 | 0.00 | 68 | 1017.9 |
| 20260507012502 | 18 | 332 | 1.6 | 12.9 | 0.00 | 0.00 | 0.00 | 67 | 1017.8 |
| 20260507012003 | 19 | 329 | 1.6 | 6.4 | 0.00 | 0.00 | 0.00 | 67 | 1017.8 |
| 20260507011502 | 19 | 317 | 1.6 | 8.0 | 0.00 | 0.00 | 0.00 | 66 | 1017.7 |
| 20260507011002 | 20 | 326 | 1.6 | 8.0 | 0.00 | 0.00 | 0.00 | 66 | 1017.8 |
| 20260507010502 | 20 | 330 | 1.6 | 14.5 | 0.00 | 0.00 | 0.00 | 65 | 1017.9 |
| 20260507010002 | 20 | 327 | 1.6 | 14.5 | 0.00 | 0.00 | 0.00 | 63 | 1017.8 |
| 20260507005502 | 21 | 334 | 0.0 | 8.0 | 0.00 | 0.00 | 0.00 | 62 | 1017.7 |
| 20260507005002 | 21 | 339 | 0.0 | 1.6 | 0.00 | 0.00 | 0.00 | 62 | 1017.7 |
| 20260507004502 | 21 | 277 | 0.0 | 3.2 | 0.00 | 0.00 | 0.00 | 61 | 1017.7 |
| 20260507004002 | 21 | 268 | 1.6 | 3.2 | 0.00 | 0.00 | 0.00 | 60 | 1017.7 |
| 20260507003502 | 21 | 273 | 1.6 | 3.2 | 0.00 | 0.00 | 0.00 | 60 | 1017.7 |
| 20260507003003 | 21 | 299 | 1.6 | 3.2 | 0.00 | 0.00 | 0.00 | 60 | 1017.7 |
| 20260507002502 | 21 | 302 | 1.6 | 3.2 | 0.00 | 0.00 | 0.00 | 59 | 1017.8 |
| 20260507002002 | 22 | 285 | 0.0 | 1.6 | 0.00 | 0.00 | 0.00 | 59 | 1017.8 |
| 20260507001502 | 22 | 0 | 0.0 | 0.0 | 0.00 | 0.00 | 0.00 | 58 | 1017.8 |
| 20260507001002 | 22 | 0 | 0.0 | 0.0 | 0.00 | 0.00 | 0.00 | 59 | 1017.7 |
| 20260507000502 | 22 | 79 | 0.0 | 1.6 | 0.00 | 0.00 | 0.00 | 59 | 1017.7 |
| 20260507000003 | 21 | 174 | 1.6 | 4.8 | 0.00 | 0.00 | 0.00 | 60 | 1017.8 |
| 20260506235502 | 21 | 168 | 1.6 | 4.8 | 0.00 | 0.00 | 0.00 | 59 | 1017.7 |
| 20260506235004 | 21 | 140 | 0.0 | 3.2 | 0.00 | 0.00 | 0.00 | 60 | 1017.7 |
| 20260506234502 | 21 | 113 | 0.0 | 3.2 | 0.00 | 0.00 | 0.00 | 59 | 1017.8 |
| 20260506234023 | 21 | 166 | 0.0 | 3.2 | 0.00 | 0.00 | 0.00 | 59 | 1017.8 |
| 20260506233502 | 21 | 229 | 1.6 | 3.2 | 0.00 | 0.00 | 0.00 | 58 | 1017.8 |
| 20260506233023 | 22 | 271 | 1.6 | 6.4 | 0.00 | 0.00 | 0.00 | 58 | 1017.8 |
| 20260506232502 | 22 | 291 | 3.2 | 11.3 | 0.00 | 0.00 | 0.00 | 58 | 1017.8 |
| 20260506232023 | 22 | 290 | 1.6 | 11.3 | 0.00 | 0.00 | 0.00 | 58 | 1017.9 |
| 20260506231502 | 22 | 220 | 1.6 | 3.2 | 0.00 | 0.00 | 0.00 | 59 | 1018.0 |
| 20260506231023 | 22 | 207 | 1.6 | 4.8 | 0.00 | 0.00 | 0.00 | 58 | 1018.1 |
| 20260506230502 | 21 | 184 | 0.0 | 6.4 | 0.00 | 0.00 | 0.00 | 60 | 1018.1 |
| 20260506230002 | 21 | 152 | 0.0 | 6.4 | 0.00 | 0.00 | 0.00 | 60 | 1018.1 |
| 20260506225502 | 21 | 165 | 1.6 | 3.2 | 0.00 | 0.00 | 0.00 | 60 | 1018.2 |
| 20260506225002 | 21 | 160 | 0.0 | 3.2 | 0.00 | 0.00 | 0.00 | 59 | 1018.3 |
| 20260506224502 | 21 | 155 | 0.0 | 3.2 | 0.00 | 0.00 | 0.00 | 60 | 1018.4 |
| 20260506224002 | 21 | 200 | 1.6 | 3.2 | 0.00 | 0.00 | 0.00 | 61 | 1018.4 |
| 20260506223502 | 21 | 207 | 1.6 | 3.2 | 0.00 | 0.00 | 0.00 | 61 | 1018.4 |
| 20260506223023 | 21 | 205 | 1.6 | 3.2 | 0.00 | 0.00 | 0.00 | 61 | 1018.5 |
| 20260506222502 | 21 | 215 | 1.6 | 3.2 | 0.00 | 0.00 | 0.00 | 62 | 1018.5 |
| 20260506222002 | 20 | 337 | 1.6 | 4.8 | 0.00 | 0.00 | 0.00 | 63 | 1018.6 |
| 20260506221502 | 20 | 323 | 1.6 | 4.8 | 0.00 | 0.00 | 0.00 | 63 | 1018.6 |
| 20260506221002 | 20 | 281 | 1.6 | 3.2 | 0.00 | 0.00 | 0.00 | 66 | 1018.6 |
| 20260506220502 | 20 | 171 | 1.6 | 3.2 | 0.00 | 0.00 | 0.00 | 66 | 1018.6 |
| 20260506220024 | 20 | 195 | 1.6 | 6.4 | 0.00 | 0.00 | 0.00 | 66 | 1018.5 |
| 20260506215502 | 20 | 220 | 1.6 | 6.4 | 0.00 | 0.00 | 0.00 | 66 | 1018.4 |
| 20260506215002 | 20 | 205 | 1.6 | 4.8 | 0.00 | 0.00 | 0.00 | 67 | 1018.5 |
| 20260506214502 | 19 | 163 | 1.6 | 3.2 | 0.00 | 0.00 | 0.00 | 67 | 1018.6 |
| 20260506214002 | 19 | 139 | 1.6 | 4.8 | 0.00 | 0.00 | 0.00 | 67 | 1018.7 |
| 20260506213502 | 19 | 149 | 1.6 | 4.8 | 0.00 | 0.00 | 0.00 | 67 | 1018.7 |
| 20260506213023 | 19 | 188 | 1.6 | 4.8 | 0.00 | 0.00 | 0.00 | 67 | 1018.9 |
| 20260506212523 | 19 | 239 | 1.6 | 14.5 | 0.00 | 0.00 | 0.00 | 68 | 1018.9 |
| 20260506212002 | 19 | 232 | 1.6 | 14.5 | 0.00 | 0.00 | 0.00 | 67 | 1019.0 |
| 20260506211502 | 19 | 232 | 1.6 | 8.0 | 0.00 | 0.00 | 0.00 | 67 | 1019.1 |
| 20260506211002 | 19 | 265 | 1.6 | 8.0 | 0.00 | 0.00 | 0.00 | 68 | 1018.9 |
| 20260506210502 | 19 | 253 | 1.6 | 4.8 | 0.00 | 0.00 | 0.00 | 68 | 1019.0 |
| 20260506210002 | 19 | 191 | 1.6 | 3.2 | 0.00 | 0.00 | 0.00 | 68 | 1019.0 |
| 20260506205502 | 18 | 156 | 1.6 | 4.8 | 0.00 | 0.00 | 0.00 | 68 | 1018.9 |
| 20260506205003 | 18 | 139 | 1.6 | 4.8 | 0.00 | 0.00 | 0.00 | 69 | 1018.9 |
| 20260506204502 | 18 | 206 | 1.6 | 4.8 | 0.00 | 0.00 | 0.00 | 70 | 1018.8 |
| 20260506204002 | 18 | 200 | 1.6 | 4.8 | 0.00 | 0.00 | 0.00 | 71 | 1018.8 |
| 20260506203503 | 18 | 158 | 1.6 | 4.8 | 0.00 | 0.00 | 0.00 | 71 | 1018.9 |
| 20260506203002 | 17 | 138 | 1.6 | 3.2 | 0.00 | 0.00 | 0.00 | 72 | 1019.0 |
| 20260506202502 | 17 | 136 | 1.6 | 6.4 | 0.00 | 0.00 | 0.00 | 73 | 1019.0 |
| 20260506202024 | 17 | 143 | 1.6 | 6.4 | 0.00 | 0.00 | 0.00 | 73 | 1019.0 |
| 20260506201503 | 17 | 165 | 1.6 | 4.8 | 0.00 | 0.00 | 0.00 | 74 | 1019.2 |
| 20260506201002 | 17 | 196 | 1.6 | 4.8 | 0.00 | 0.00 | 0.00 | 74 | 1019.3 |
| 20260506200502 | 17 | 220 | 0.0 | 3.2 | 0.00 | 0.00 | 0.00 | 74 | 1019.3 |
| 20260506200003 | 17 | 0 | 0.0 | 0.0 | 0.00 | 0.00 | 0.00 | 74 | 1019.3 |
| 20260506195502 | 17 | 259 | 0.0 | 3.2 | 0.00 | 0.00 | 0.00 | 74 | 1019.3 |
| 20260506195002 | 17 | 217 | 0.0 | 3.2 | 0.00 | 0.00 | 0.00 | 74 | 1019.4 |
| 20260506194523 | 17 | 222 | 1.6 | 3.2 | 0.00 | 0.00 | 0.00 | 74 | 1019.4 |
| 20260506194002 | 17 | 234 | 1.6 | 8.0 | 0.00 | 0.00 | 0.00 | 74 | 1019.4 |
| 20260506193502 | 17 | 227 | 1.6 | 8.0 | 0.00 | 0.00 | 0.00 | 74 | 1019.4 |
| 20260506193003 | 17 | 202 | 1.6 | 4.8 | 0.00 | 0.00 | 0.00 | 75 | 1019.3 |
| 20260506192502 | 17 | 170 | 1.6 | 4.8 | 0.00 | 0.00 | 0.00 | 74 | 1019.2 |
| 20260506192002 | 17 | 160 | 1.6 | 4.8 | 0.00 | 0.00 | 0.00 | 74 | 1019.2 |
| 20260506191502 | 17 | 190 | 1.6 | 6.4 | 0.00 | 0.00 | 0.00 | 75 | 1019.2 |
| 20260506191002 | 16 | 210 | 1.6 | 6.4 | 0.00 | 0.00 | 0.00 | 76 | 1019.2 |
| 20260506190502 | 16 | 207 | 1.6 | 6.4 | 0.00 | 0.00 | 0.00 | 75 | 1019.3 |
| 20260506190023 | 16 | 196 | 1.6 | 3.2 | 0.00 | 0.00 | 0.00 | 75 | 1019.2 |
| 20260506185503 | 16 | 192 | 1.6 | 4.8 | 0.00 | 0.00 | 0.00 | 77 | 1019.2 |
| 20260506185002 | 16 | 198 | 1.6 | 4.8 | 0.00 | 0.00 | 0.00 | 76 | 1019.2 |
| 20260506184503 | 16 | 197 | 1.6 | 6.4 | 0.00 | 0.00 | 0.00 | 76 | 1019.2 |
| 20260506184003 | 16 | 197 | 1.6 | 6.4 | 0.00 | 0.00 | 0.00 | 77 | 1019.2 |
| 20260506183502 | 16 | 214 | 1.6 | 3.2 | 0.00 | 0.00 | 0.00 | 77 | 1019.2 |
| 20260506183023 | 16 | 235 | 1.6 | 4.8 | 0.00 | 0.00 | 0.00 | 77 | 1019.2 |
| 20260506182502 | 16 | 224 | 1.6 | 4.8 | 0.00 | 0.00 | 0.00 | 77 | 1019.1 |
| 20260506182002 | 16 | 191 | 1.6 | 4.8 | 0.00 | 0.00 | 0.00 | 78 | 1019.2 |
| 20260506181503 | 16 | 184 | 1.6 | 4.8 | 0.00 | 0.00 | 0.00 | 77 | 1019.2 |
| 20260506181023 | 15 | 199 | 1.6 | 4.8 | 0.00 | 0.00 | 0.00 | 78 | 1019.2 |
| 20260506180502 | 15 | 208 | 1.6 | 4.8 | 0.00 | 0.00 | 0.00 | 78 | 1019.3 |
| 20260506180002 | 15 | 209 | 1.6 | 4.8 | 0.00 | 0.00 | 0.00 | 78 | 1019.3 |
| 20260506175502 | 15 | 221 | 1.6 | 4.8 | 0.00 | 0.00 | 0.00 | 78 | 1019.2 |
| 20260506175023 | 15 | 210 | 1.6 | 4.8 | 0.00 | 0.00 | 0.00 | 79 | 1019.2 |
| 20260506174523 | 15 | 184 | 1.6 | 3.2 | 0.00 | 0.00 | 0.00 | 80 | 1019.1 |
| 20260506174002 | 15 | 194 | 1.6 | 3.2 | 0.00 | 0.00 | 0.00 | 80 | 1019.0 |
| 20260506173502 | 15 | 209 | 1.6 | 4.8 | 0.00 | 0.00 | 0.00 | 81 | 1019.0 |
| 20260506173002 | 14 | 204 | 1.6 | 4.8 | 0.00 | 0.00 | 0.00 | 82 | 1019.0 |
| 20260506172502 | 14 | 217 | 1.6 | 3.2 | 0.00 | 0.00 | 0.00 | 82 | 1018.9 |
| 20260506172002 | 14 | 226 | 1.6 | 3.2 | 0.00 | 0.00 | 0.00 | 83 | 1019.0 |
| 20260506171502 | 14 | 220 | 1.6 | 3.2 | 0.00 | 0.00 | 0.00 | 83 | 1019.0 |
| 20260506171005 | 14 | 216 | 1.6 | 4.8 | 0.00 | 0.00 | 0.00 | 83 | 1019.1 |
| 20260506170502 | 14 | 203 | 1.6 | 4.8 | 0.00 | 0.00 | 0.00 | 82 | 1019.1 |
| 20260506170002 | 14 | 199 | 1.6 | 6.4 | 0.00 | 0.00 | 0.00 | 82 | 1018.9 |
| 20260506165502 | 14 | 196 | 1.6 | 6.4 | 0.00 | 0.00 | 0.00 | 83 | 1018.9 |
| 20260506165002 | 14 | 198 | 1.6 | 3.2 | 0.00 | 0.00 | 0.00 | 83 | 1019.0 |
| 20260506164502 | 14 | 207 | 1.6 | 4.8 | 0.00 | 0.00 | 0.00 | 83 | 1019.0 |
| 20260506164002 | 14 | 199 | 1.6 | 4.8 | 0.00 | 0.00 | 0.00 | 83 | 1019.0 |
| 20260506163502 | 14 | 187 | 1.6 | 3.2 | 0.00 | 0.00 | 0.00 | 82 | 1018.8 |
| 20260506163002 | 14 | 184 | 1.6 | 4.8 | 0.00 | 0.00 | 0.00 | 83 | 1018.8 |
| 20260506162502 | 14 | 187 | 1.6 | 4.8 | 0.00 | 0.00 | 0.00 | 83 | 1018.7 |
| 20260506162002 | 14 | 190 | 1.6 | 3.2 | 0.00 | 0.00 | 0.00 | 83 | 1018.7 |
| 20260506161503 | 14 | 181 | 0.0 | 3.2 | 0.00 | 0.00 | 0.00 | 84 | 1018.7 |
| 20260506161024 | 14 | 173 | 1.6 | 4.8 | 0.00 | 0.00 | 0.00 | 85 | 1018.5 |
| 20260506160502 | 14 | 143 | 1.6 | 4.8 | 0.00 | 0.00 | 0.00 | 85 | 1018.6 |
| 20260506160003 | 13 | 108 | 1.6 | 9.7 | 0.00 | 0.00 | 0.00 | 87 | 1018.2 |
| 20260506155502 | 13 | 103 | 1.6 | 9.7 | 0.00 | 0.00 | 0.00 | 87 | 1017.9 |
| 20260506155002 | 13 | 113 | 0.0 | 1.6 | 0.00 | 0.00 | 0.00 | 87 | 1018.2 |
| 20260506154502 | 13 | 210 | 0.0 | 3.2 | 0.00 | 0.00 | 0.00 | 87 | 1018.4 |
| 20260506154002 | 13 | 197 | 1.6 | 3.2 | 0.00 | 0.00 | 0.00 | 87 | 1018.7 |
| 20260506153502 | 13 | 186 | 0.0 | 3.2 | 0.00 | 0.00 | 0.00 | 87 | 1018.9 |
| 20260506153003 | 13 | 201 | 0.0 | 3.2 | 0.00 | 0.00 | 0.00 | 87 | 1018.9 |
| 20260506152502 | 13 | 210 | 0.0 | 3.2 | 0.00 | 0.00 | 0.00 | 87 | 1019.0 |
| 20260506152002 | 13 | 206 | 0.0 | 3.2 | 0.00 | 0.00 | 0.00 | 87 | 1019.0 |
| 20260506151523 | 13 | 199 | 0.0 | 3.2 | 0.00 | 0.00 | 0.00 | 87 | 1018.9 |
| 20260506151002 | 13 | 239 | 0.0 | 3.2 | 0.00 | 0.00 | 0.00 | 86 | 1018.9 |
| 20260506150502 | 13 | 217 | 1.6 | 3.2 | 0.00 | 0.00 | 0.00 | 86 | 1018.8 |
| 20260506150003 | 13 | 185 | 1.6 | 3.2 | 0.00 | 0.00 | 0.00 | 85 | 1018.8 |
| 20260506145502 | 13 | 220 | 1.6 | 4.8 | 0.00 | 0.00 | 0.00 | 85 | 1018.8 |
| 20260506145023 | 13 | 252 | 1.6 | 8.0 | 0.00 | 0.00 | 0.00 | 86 | 1018.8 |
| 20260506144502 | 13 | 264 | 0.0 | 8.0 | 0.00 | 0.00 | 0.00 | 86 | 1018.6 |
| 20260506144002 | 13 | 244 | 0.0 | 3.2 | 0.00 | 0.00 | 0.00 | 87 | 1018.4 |
| 20260506143502 | 13 | 104 | 0.0 | 4.8 | 0.00 | 0.00 | 0.00 | 87 | 1018.3 |
| 20260506143003 | 13 | 121 | 1.6 | 4.8 | 0.00 | 0.00 | 0.00 | 87 | 1018.1 |
| 20260506142502 | 13 | 123 | 1.6 | 3.2 | 0.00 | 0.00 | 0.00 | 87 | 1018.0 |
| 20260506142002 | 13 | 145 | 1.6 | 4.8 | 0.00 | 0.00 | 0.00 | 87 | 1018.0 |
| 20260506141503 | 13 | 187 | 1.6 | 4.8 | 0.00 | 0.00 | 0.00 | 87 | 1017.9 |
| 20260506141002 | 13 | 193 | 0.0 | 4.8 | 0.00 | 0.00 | 0.00 | 87 | 1018.0 |
| 20260506140503 | 13 | 0 | 0.0 | 0.0 | 0.00 | 0.00 | 0.00 | 87 | 1018.0 |
| 20260506140002 | 13 | 0 | 0.0 | 0.0 | 0.00 | 0.00 | 0.00 | 87 | 1017.9 |
| 20260506135502 | 13 | 0 | 0.0 | 0.0 | 0.00 | 0.00 | 0.00 | 87 | 1017.8 |
| 20260506135023 | 13 | 0 | 0.0 | 0.0 | 0.00 | 0.00 | 0.00 | 87 | 1017.9 |
| 20260506134502 | 13 | 0 | 0.0 | 0.0 | 0.00 | 0.00 | 0.00 | 87 | 1017.8 |
| 20260506134002 | 13 | 0 | 0.0 | 0.0 | 0.00 | 0.00 | 0.00 | 87 | 1017.7 |
| 20260506133503 | 13 | 0 | 0.0 | 0.0 | 0.00 | 0.00 | 0.00 | 87 | 1017.6 |
| 20260506133023 | 13 | 0 | 0.0 | 0.0 | 0.00 | 0.00 | 0.00 | 86 | 1017.6 |
| 20260506132523 | 13 | 100 | 0.0 | 4.8 | 0.00 | 0.00 | 0.00 | 86 | 1017.6 |
| 20260506132002 | 13 | 100 | 0.0 | 4.8 | 0.00 | 0.00 | 0.00 | 86 | 1017.5 |
| 20260506131502 | 13 | 0 | 0.0 | 0.0 | 0.00 | 0.00 | 0.00 | 86 | 1017.6 |
| 20260506131002 | 13 | 0 | 0.0 | 0.0 | 0.00 | 0.00 | 0.00 | 86 | 1017.7 |
| 20260506130524 | 13 | 0 | 0.0 | 0.0 | 0.00 | 0.00 | 0.00 | 85 | 1017.7 |
| 20260506130002 | 13 | 0 | 0.0 | 0.0 | 0.00 | 0.00 | 0.00 | 85 | 1017.6 |
| 20260506125523 | 13 | 0 | 0.0 | 0.0 | 0.00 | 0.00 | 0.00 | 85 | 1017.6 |
| 20260506125002 | 13 | 0 | 0.0 | 0.0 | 0.00 | 0.00 | 0.00 | 85 | 1017.5 |
| 20260506124503 | 13 | 0 | 0.0 | 0.0 | 0.00 | 0.00 | 0.00 | 85 | 1017.5 |
| 20260506124003 | 13 | 0 | 0.0 | 0.0 | 0.00 | 0.00 | 0.00 | 84 | 1017.6 |
| 20260506123503 | 13 | 0 | 0.0 | 0.0 | 0.00 | 0.00 | 0.00 | 84 | 1017.5 |
| 20260506123023 | 13 | 0 | 0.0 | 0.0 | 0.00 | 0.00 | 0.00 | 84 | 1017.6 |
| 20260506122523 | 13 | 0 | 0.0 | 0.0 | 0.00 | 0.00 | 0.00 | 84 | 1017.5 |
| 20260506122023 | 13 | 0 | 0.0 | 0.0 | 0.00 | 0.00 | 0.00 | 84 | 1017.5 |
| 20260506121502 | 13 | 0 | 0.0 | 0.0 | 0.00 | 0.00 | 0.00 | 84 | 1017.4 |
| 20260506121024 | 13 | 0 | 0.0 | 0.0 | 0.00 | 0.00 | 0.00 | 84 | 1017.4 |
| 20260506120503 | 13 | 0 | 0.0 | 0.0 | 0.00 | 0.00 | 0.00 | 84 | 1017.3 |
| 20260506120024 | 13 | 0 | 0.0 | 0.0 | 0.00 | 0.00 | 0.00 | 84 | 1017.3 |